This demonstration page uses our WeatherBlox Daily Observations layout. Learn more.

Hourly Observations for February 3, 2017

Temp ( °F °C ) Dew Point ( °F °C ) Humidity (%) Winds ( mph kmh ) Pressure ( in mb ) Visibility ( mi km ) Precip ( " mm )
12:54 am 00:54 Cloudy 23 -5 10 -12.2 57 57 N 7 11 30.56 1035 10 16.0934 0 0
1:54 am 01:54 Cloudy 22 -5.6 12 -11.1 66 66 N 9 15 30.57 1035 10 16.0934 0 0
2:54 am 02:54 Cloudy 22 -5.6 12 -11.1 66 66 N 7 11 30.58 1036 10 16.0934 0 0
3:54 am 03:54 Cloudy 22 -5.6 13 -10.6 68 68 NNW 9 15 30.59 1036 10 16.0934 0 0.0254
4:54 am 04:54 Cloudy 22 -5.6 13 -10.6 68 68 NNW 10 17 30.6 1036 10 16.0934 0 0
5:54 am 05:54 Cloudy 21 -6.1 12 -11.1 68 68 N 10 17 30.61 1037 10 16.0934 0 0.0254
6:54 am 06:54 Cloudy 20 -6.7 11 -11.7 68 68 N 12 19 30.63 1037 10 16.0934 0 0
7:54 am 07:54 Cloudy 20 -6.7 11 -11.7 68 68 NNW 7 11 30.65 1038 10 16.0934 0 0
8:54 am 08:54 Mostly Cloudy 20 -6.7 11 -11.7 68 68 NNW 9 15 30.67 1039 10 16.0934 0 0
9:54 am 09:54 Sunny 23 -5 12 -11.1 63 63 N 7 11 30.67 1039 10 16.0934 0 0
10:54 am 10:54 Sunny 25 -3.9 12 -11.1 58 58 Calm 30.67 1039 10 16.0934 0 0
11:54 am 11:54 Sunny 28 -2.2 12 -11.1 51 51 NW 5 7 30.64 1038 10 16.0934 0 0
12:54 pm 12:54 Sunny 30 -1.1 12 -11.1 47 47 N 7 11 30.6 1036 10 16.0934 0 0
1:54 pm 13:54 Sunny 32 0 11 -11.7 41 41 Calm 30.57 1035 10 16.0934 0 0
2:54 pm 14:54 Sunny 33 0.6 11 -11.7 40 40 W 8 13 30.54 1034 10 16.0934 0 0
3:54 pm 15:54 Sunny 31 -0.6 11 -11.7 43 43 SSW 7 11 30.52 1034 10 16.0934 0 0
4:54 pm 16:54 Sunny 30 -1.1 11 -11.7 45 45 SSW 5 7 30.49 1033 10 16.0934 0 0
5:54 pm 17:54 Clear 27 -2.8 12 -11.1 53 53 SSW 5 7 30.48 1032 10 16.0934 0 0
6:54 pm 18:54 Clear 24 -4.4 13 -10.6 62 62 S 5 7 30.47 1032 10 16.0934 0 0
7:54 pm 19:54 Clear 20 -6.7 12 -11.1 71 71 S 7 11 30.46 1032 10 16.0934 0 0
8:54 pm 20:54 Clear 20 -6.7 13 -10.6 74 74 SSE 6 9 30.44 1031 10 16.0934 0 0
9:54 pm 21:54 Clear 20 -6.7 14 -10 78 78 SSE 7 11 30.41 1030 10 16.0934 0 0
10:54 pm 22:54 Clear 20 -6.7 14 -10 78 78 SSE 9 15 30.38 1029 10 16.0934 0 0
11:54 pm 23:54 Clear 22 -5.6 15 -9.4 75 75 S 8 13 30.35 1028 10 16.0934 0 0

Powered by AerisWeather